Regional Weather Roundup
Issued by NWS Charleston, SC

Current Version | Previous Version | Text Only | Print | Product List | Glossary Off
Versions: 1 2 3 4 5 6 7 8 9 10 11 12 13 14 15 16 17 18 19 20 21 22 23 24 25 26 27 28 29 30 31 32 33 34 35 36 37 38 39 40 41 42 43 44 45 46 47 48 49 50

863
ASUS42 KCHS 261012
RWRCHS

Regional Weather Roundup
National Weather Service Charleston SC
600 AM EDT SAT MAY 26 2018

NOTE: "fair" indicates few or no clouds below 12,000 feet with no
significant weather and/or obstructions to visibility.

Not all stations are quality controlled. Use data with caution,
especially dewpoint observations.

SCZ027-030-031-034>040-042>050-261100-
...Southeast South Carolina...

CITY           SKY/WX    TMP DP  RH WIND       PRES   REMARKS
N Charleston   FAIR      73  72  96 SE5       29.98S
Waterfront Prk   N/A     77  74  91 S7        29.82S
Mount Pleasant PTSUNNY   73  73 100 CALM      29.99S FOG
Johns Island   PTSUNNY   77  73  88 S7        29.99R
Pinopolis        N/A     72  72 100 VRB3      29.90S
Moncks Corner  FAIR      68  66  94 CALM      29.98S
Summerville    FAIR      68  66  94 CALM      29.99R
Beaufort MCAS  FAIR      77  75  93 S3        29.97S
Beaufort Arpt  FAIR      73  72  94 S5        29.97S
Hilton Head Is MOCLDY    77  73  88 CALM      29.98S
Walterboro     CLOUDY    68  68 100 CALM      29.98S FOG
Allendale      CLOUDY    72  72 100 CALM      29.96S FOG

...Southern Midlands and Pee Dee...

CITY           SKY/WX    TMP DP  RH WIND       PRES   REMARKS
Georgetown     FOG       68  66  94 CALM      30.00S VSB 3/4
Kingstree      FAIR      68  68 100 CALM      29.98S
Orangeburg     CLOUDY    71  69  93 SE3       29.97S
Barnwell       CLOUDY    72  72 100 S6        29.96S
Aiken          CLOUDY    70  70 100 S7        29.99S
Manning        CLOUDY    64  64 100 CALM      29.98S
Columbia       CLOUDY    73  72  96 S3        29.95F
Sumter         CLOUDY    70  70 100 S3        29.95S FOG
Florence       FOG       71  70  96 S5        29.98S VSB 3/4
Myrtle Beach   NOT AVBL
N Myrtle Beach FAIR      74  73  97 SW6       29.99S

$$

GAZ063-065-086>088-099>101-113>116-118-119-134>141-150-261100-
...Southeast Georgia...

CITY           SKY/WX    TMP DP  RH WIND       PRES   REMARKS
Savannah Arpt  FAIR      73  72  96 CALM      29.97S
Hunter AAF     FAIR      74  71  91 CALM      29.94S
Fort Stewart   FOG       70  70 100 CALM      29.95R VSB 3/4
Statesboro     CLOUDY    72  71  97 S5        29.96S
Sylvania       CLOUDY    73  73  99 SW3       29.98S FOG
Claxton        CLOUDY    73  72  98 CALM      29.97S FOG

...CSRA, Central and far Southeast Georgia...

CITY           SKY/WX    TMP DP  RH WIND       PRES   REMARKS
Thomson        CLOUDY    71  70  98 W6        29.99S FOG
Augusta-Bush   CLOUDY    72  71  97 S6        29.94F
Augusta-Daniel CLOUDY    73  72  96 SE7       29.95F
Swainsboro     CLOUDY    72  72 100 S3        29.97R FOG
Vidalia        FOG       72  68  88 SE5       29.97R VSB 1
Eastman        PTSUNNY   72  65  78 CALM      29.97S HAZE
Hazlehurst       N/A     72  68  88 CALM      29.95R
Alma           CLOUDY    72  70  93 CALM      29.96R
Waycross       CLOUDY    71  68  90 CALM      29.97R FOG
Jesup          FAIR      72  68  89 CALM      29.97S
Baxley         CLOUDY    68  68 100 CALM      29.96S FOG
Brunswick      FOG       70  66  88 CALM      29.97F VSB 1/2
Saint Simons   FAIR      76  72  87 SW5       29.96S

$$

SCZ027-028-034-036>038-045-046-048>050-GAZ119-141-261100-
...Lake and Supplemental Coastal Observations...

STATION/POSITION TIME  TEMP    WIND        PRES    WAVE   SWELL
                       AIR SEA DIR/SP/G            HT/PER HT/PER/DIR
                 (UTC) (F)     (DEG/KT/KT) (MB)    (FT/S) (FT/S/D)
Winyah Bay       0845   74     240/  2     1016.0
Lake Murray      0920   74     190/  9/ 12 1013.5
ACE Basin NERRS  0845   76        CALM     1015.0
Fort Pulaski     0942   77 80  190/  3/  5 1015.1S
Sapelo Island    0900   76     220/  6     1014.0

$$

ANZ835-935-AMZ111-154-330-350-352-354-370-450-454-472-261100-
...C-MAN and Buoy Observations...

STATION/POSITION TIME  TEMP    WIND        PRES    WAVE   SWELL
                       AIR SEA DIR/SP/G            HT/PER HT/PER/DIR
                 (UTC) (F)     (DEG/KT/KT) (MB)    (FT/S) (FT/S/D)
Buoy 41004       0950      76  180/  6/  6 1015.5R   3/ 9   3/120/ 9
Buoy 41008       0950   76 77  170/  8/ 10 1014.3F   3/ 9   2/ 90/ 9
Folly Beach CMAN 0900   77     180/ 10/ 11 1016.0R
Capers Nearshore NOT AVBL
Fripp Nearshore  NOT AVBL


STATION/POSITION TIME  TEMP    WIND        PRES    WAVE   SWELL
                       AIR SEA DIR/SP/G            HT/PER HT/PER/DIR
                 (UTC) (F)     (DEG/KT/KT) (MB)    (FT/S) (FT/S/D)
5E St. Marys GA  1000      78                N/A     3/ 5
Frying Pan Buoy  0950   77 76  230/  6/  8 1016.1R   2/ 8   2/120/ 8
Buoy 41025       0950   77 78  240/ 12/ 14 1016.3R   3/ 9   2/130/ 9
Cape Lookout NC  0900          220/  6/  8 1016.0S
Buoy 41002       0950      78  210/  4/  6 1017.0R   3/ 8   3/130/ 8
Buoy 41010       0950   78 79  130/ 12/ 14 1015.6R   4/ 9   2/110/ 9
St Augustine FL  1000   74 78  190/  5/  5 1014.8R


$$




USA.gov is the U.S. government's official web portal to all federal, state and local government web resources and services.